[[{"header":{"parameterUnit":"m.s-1","parameterCategory":1,"la1":30.2991,"la2":30.254,"lo1":-89.0895,"lo2":-89.0444,"dy":0.0017,"dx":0.0017,"nx":28,"ny":28,"refTime":"2024-03-09T03:00:00:Z","depth":0,"parameterNumber":2,"parameterNumberName":"U-component_of_WINDS"},"data":[0,0,0,0,0,0,0,0,0,0,0,0,0,0,0,0,0,0,0,0,0,0,0,0,0,0,0,0,0,0,0,0,0,0,0,0,0,0,0,0,0,0,0,0,0,0,0,0,0,0,0,0,0,0,0,0,0,0,0.3897,0.3897,0,0.39,0.39,0.39,0.3909,0.3909,0.3909,0.3909,0.3913,0.3913,0.3913,0,0,0,0,0,0,0,0,0,0,0,0,0,0.3897,0.3897,0.3897,0.3897,0.3897,0.39,0.39,0.39,0.3909,0.3909,0.3909,0.3909,0.3913,0.3913,0.3913,0,0,0,0,0,0,0,0,0,0,0,0,0,0.3898,0.3897,0.3897,0.3901,0.3902,0.39,0.39,0.39,0.3909,0.3909,0.3909,0.3909,0.3913,0.3913,0.3913,0.3907,0,0,0.3912,0.3912,0,0,0,0,0,0,0,0,0.3898,0.3898,0.39,0.3901,0.3901,0.3904,0.3902,0.3903,0.3909,0.3906,0.3909,0.391,0.391,0.391,0.391,0.3907,0.3907,0.3912,0.3912,0.3912,0.3912,0,0,0,0,0,0,0,0.3898,0.3898,0.3898,0.3901,0.3901,0.3903,0.3904,0.3902,0.3906,0.3906,0.3907,0.3907,0.391,0.391,0.391,0.3907,0.3912,0.3912,0.3912,0.3912,0.3901,0.3901,0,0,0,0,0,0,0.3897,0.3898,0.3898,0.3898,0.39,0.3903,0.3904,0.3903,0.3906,0.3907,0.3907,0.3908,0.391,0.391,0.391,0.3904,0.3912,0.3912,0.3912,0.3901,0.3901,0.39,0,0,0,0,0,0,0.3897,0.3897,0.3898,0.3898,0.3898,0.3903,0.3902,0.3903,0.3903,0.3907,0.3908,0.3906,0.391,0.391,0.3908,0.3905,0.3912,0.3912,0.3901,0.3901,0.3901,0.3892,0,0,0,0,0,0,0.3897,0.3897,0.3895,0.3898,0.3898,0.3895,0.3902,0.3903,0.3903,0.3904,0.3907,0.3907,0.3911,0.3908,0.3908,0.3905,0.3912,0.3902,0.3901,0.3901,0.3893,0.3891,0.389,0,0,0,0,0,0.3897,0.3892,0.3895,0.3894,0.3896,0.3895,0.3895,0.3899,0.3903,0.3901,0.3903,0.3907,0.3905,0.3908,0.3908,0.3904,0.3902,0.3901,0.3901,0.3893,0.3892,0.389,0,0,0,0,0,0,0.3887,0.3892,0.3895,0.3891,0.3893,0.3896,0.3894,0.3897,0.3898,0.3898,0.3903,0.3904,0.3901,0.3902,0.3905,0.3899,0.3904,0.3904,0.3898,0.3897,0.3896,0.3895,0.3912,0,0,0,0,0,0.3885,0.3884,0.3888,0.3884,0.3885,0.3889,0.3889,0.3892,0.3894,0.3894,0.3897,0.3898,0.3898,0.3898,0.3898,0.3893,0.3894,0.3891,0.389,0.3889,0.3888,0.3887,0.3885,0.3899,0.3899,0.3899,0,0,0.3879,0.3882,0.3881,0.3882,0.3884,0.3883,0.3889,0.3888,0.3887,0.3894,0.3892,0.3894,0.3896,0.3893,0.3891,0.3894,0.3885,0.3888,0.3887,0.3887,0.3886,0.3885,0.3883,0.3898,0.3898,0.3898,0,0,0.3869,0.3871,0.3868,0.3869,0.3872,0.3875,0.3874,0.3878,0.3879,0.3877,0.3883,0.3882,0.3882,0.3883,0.3884,0.3875,0.3879,0.3875,0.3869,0.3868,0.3866,0.3866,0.3863,0.3862,0.3875,0.3875,0.3875,0,0.3862,0.386,0.3865,0.3864,0.3865,0.3871,0.3868,0.387,0.3872,0.3872,0.3875,0.3875,0.3877,0.3875,0.3873,0.3873,0.3873,0.3875,0.3866,0.3865,0.3865,0.3862,0.3861,0.3874,0.3874,0.3874,0.3874,0,0.3851,0.3851,0.3848,0.385,0.3851,0.3849,0.3854,0.3854,0.3857,0.386,0.3859,0.3861,0.3862,0.3862,0.3865,0.386,0.3862,0.3865,0.387,0.3863,0.3861,0.386,0.3873,0.3874,0.3874,0.3874,0,0,0.3834,0.384,0.3839,0.3841,0.3845,0.3844,0.3843,0.3844,0.3844,0.3846,0.3845,0.3845,0.3848,0.3849,0.3853,0.3851,0.3845,0.3855,0.3856,0.3854,0.3841,0.3838,0.3836,0.3848,0.3848,0.3848,0.384,0,0.3824,0.3822,0.3827,0.3823,0.3823,0.383,0.3829,0.3831,0.3834,0.3835,0.3838,0.3838,0.3843,0.3844,0.3843,0.3846,0.3843,0.3847,0.3847,0.3847,0.3846,0.3835,0.3832,0.3825,0.384,0.3839,0.3839,0,0.3812,0.3814,0.381,0.3815,0.3815,0.3814,0.3816,0.3816,0.382,0.3822,0.3824,0.3828,0.3827,0.3833,0.3832,0.3835,0.3835,0.3837,0.3837,0.3837,0.3843,0.3835,0.3822,0.3821,0.3838,0.3838,0.3838,0,0.38,0.3801,0.38,0.3801,0.3806,0.3806,0.3808,0.3811,0.3812,0.3814,0.3815,0.3817,0.3818,0.3819,0.3824,0.3828,0.3823,0.3829,0.3826,0.3825,0.3824,0.3824,0.3811,0.3825,0.3825,0.3825,0.3825,0,0.3788,0.3786,0.3794,0.3793,0.3791,0.3797,0.3795,0.3798,0.3802,0.3802,0.3808,0.3808,0.3815,0.3815,0.3819,0.3819,0.3819,0.3821,0.3822,0.382,0.382,0.3821,0.3821,0.3824,0.3824,0.3824,0.3824,0,0.3774,0.3779,0.3778,0.3784,0.3786,0.3784,0.3789,0.3788,0.3792,0.3792,0.3793,0.3799,0.38,0.3806,0.3808,0.3811,0.3809,0.3811,0.3808,0.3808,0.3805,0.3805,0.3792,0.3791,0.3805,0.3805,0.3805,0,0.3766,0.3764,0.377,0.3771,0.3773,0.3774,0.3775,0.3782,0.3783,0.3787,0.3786,0.3788,0.379,0.3792,0.3797,0.3799,0.3801,0.3796,0.3801,0.38,0.3801,0.3801,0.3801,0.3795,0.3795,0.3795,0.3795,0,0.3751,0.3754,0.3756,0.3759,0.376,0.3762,0.3765,0.3765,0.3772,0.3773,0.3775,0.3777,0.378,0.3782,0.3785,0.3788,0.3793,0.3793,0.3793,0.3791,0.3789,0.379,0.3805,0.3793,0.3793,0.3794,0.3794,0.3794,0.374,0.3739,0.3744,0.3745,0.3748,0.3751,0.3751,0.3755,0.3757,0.376,0.3764,0.3765,0.377,0.3775,0.3777,0.3779,0.3781,0.378,0.378,0.378,0.3779,0.3789,0.3779,0.3779,0.3779,0.3779,0.3779,0,0.3726,0.3729,0.3731,0.3735,0.3736,0.3741,0.3745,0.3746,0.3747,0.3751,0.3753,0.3755,0.3758,0.3763,0.3766,0.3766,0.3769,0.3767,0.3767,0.3767,0.3776,0.3777,0.3765,0.3765,0.3765,0.3765,0.3765,0.3765,0.3719,0.3718,0.3722,0.3723,0.3726,0.3728,0.373,0.3732,0.3736,0.3738,0.374,0.3744,0.3749,0.3752,0.3755,0.3756,0.3757,0.3755,0.3757,0.3765,0.3767,0.3768,0.3768,0.3755,0.3755,0.3748,0.3748,0.3748]},{"header":{"parameterUnit":"m.s-1","parameterCategory":1,"la1":30.2991,"la2":30.254,"lo1":-89.0895,"lo2":-89.0444,"dy":0.0017,"dx":0.0017,"nx":28,"ny":28,"refTime":"2024-03-09T03:00:00:Z","depth":0,"parameterNumber":3,"parameterNumberName":"V-component_of_WINDS"},"data":[0,0,0,0,0,0,0,0,0,0,0,0,0,0,0,0,0,0,0,0,0,0,0,0,0,0,0,0,0,0,0,0,0,0,0,0,0,0,0,0,0,0,0,0,0,0,0,0,0,0,0,0,0,0,0,0,0,0,-4.3187,-4.3189,0,-4.332,-4.3322,-4.3323,-4.331,-4.3307,-4.3305,-4.3303,-4.3437,-4.3442,-4.3448,0,0,0,0,0,0,0,0,0,0,0,0,0,-4.2919,-4.2924,-4.3187,-4.3189,-4.319,-4.332,-4.3322,-4.3324,-4.331,-4.3307,-4.3305,-4.3302,-4.3435,-4.3441,-4.3448,0,0,0,0,0,0,0,0,0,0,0,0,0,-4.3042,-4.2925,-4.3187,-4.3199,-4.3202,-4.332,-4.3322,-4.3324,-4.331,-4.3307,-4.3304,-4.3301,-4.3433,-4.3441,-4.3449,-4.3562,0,0,-4.3474,-4.3478,0,0,0,0,0,0,0,0,-4.3035,-4.3052,-4.3196,-4.3199,-4.3201,-4.3295,-4.3276,-4.3404,-4.3311,-4.3269,-4.3303,-4.33,-4.3392,-4.3403,-4.3435,-4.3569,-4.3574,-4.3475,-4.348,-4.3483,-4.3486,0,0,0,0,0,0,0,-4.3026,-4.3046,-4.324,-4.3198,-4.3201,-4.3197,-4.3211,-4.33,-4.3346,-4.3272,-4.3272,-4.3288,-4.3393,-4.3427,-4.3438,-4.3576,-4.3475,-4.3482,-4.3487,-4.349,-4.381,-4.3813,0,0,0,0,0,0,-4.3015,-4.3039,-4.3235,-4.3244,-4.3109,-4.3205,-4.3221,-4.3268,-4.3345,-4.3354,-4.329,-4.3287,-4.3415,-4.3429,-4.3443,-4.3581,-4.3483,-4.3491,-4.3496,-4.3806,-4.3811,-4.3814,0,0,0,0,0,0,-4.3009,-4.3033,-4.323,-4.3141,-4.3166,-4.3213,-4.3266,-4.3272,-4.3307,-4.3359,-4.3367,-4.3317,-4.3413,-4.3431,-4.3533,-4.3585,-4.3495,-4.3502,-4.3802,-4.3808,-4.3813,-4.3858,0,0,0,0,0,0,-4.3002,-4.3031,-4.3075,-4.3142,-4.3171,-4.3319,-4.327,-4.3277,-4.3321,-4.3318,-4.3386,-4.3394,-4.3412,-4.3521,-4.3541,-4.3595,-4.3509,-4.3798,-4.3805,-4.3811,-4.3852,-4.3864,-4.3874,0,0,0,0,0,-4.2992,-4.3081,-4.3077,-4.3101,-4.3227,-4.3322,-4.3338,-4.3357,-4.3326,-4.337,-4.3404,-4.3392,-4.3576,-4.3531,-4.3554,-4.3611,-4.3794,-4.3803,-4.381,-4.3847,-4.3861,-4.3874,0,0,0,0,0,0,-4.3017,-4.309,-4.3086,-4.32,-4.3255,-4.3319,-4.3376,-4.3372,-4.3436,-4.343,-4.345,-4.3466,-4.3568,-4.36,-4.3549,-4.3725,-4.3681,-4.3694,-4.3701,-4.3715,-4.3726,-4.3716,-4.3516,0,0,0,0,0,-4.3036,-4.3108,-4.3168,-4.3262,-4.329,-4.3328,-4.337,-4.3381,-4.3438,-4.3461,-4.3502,-4.3557,-4.3627,-4.3673,-4.3741,-4.3856,-4.3871,-4.3907,-4.3918,-4.3927,-4.3938,-4.4002,-4.4018,-4.3841,-4.3841,-4.384,0,0,-4.3076,-4.3125,-4.3168,-4.3269,-4.3312,-4.3386,-4.3348,-4.3427,-4.3481,-4.3472,-4.3571,-4.3604,-4.3666,-4.3776,-4.3826,-4.3805,-4.399,-4.3937,-4.3944,-4.395,-4.4011,-4.4028,-4.4043,-4.3846,-4.3845,-4.3844,0,0,-4.3185,-4.3229,-4.3313,-4.3359,-4.3426,-4.3451,-4.3471,-4.3537,-4.3558,-4.3658,-4.3653,-4.3718,-4.3838,-4.3884,-4.3922,-4.4051,-4.4043,-4.4072,-4.4131,-4.4193,-4.4207,-4.4219,-4.4265,-4.4281,-4.4083,-4.4083,-4.4083,0,-4.3225,-4.3336,-4.3357,-4.3437,-4.3481,-4.3478,-4.3563,-4.3605,-4.3691,-4.3721,-4.3697,-4.3849,-4.3891,-4.4012,-4.4043,-4.4075,-4.4098,-4.4064,-4.4203,-4.4216,-4.4228,-4.4271,-4.4289,-4.4086,-4.4086,-4.4085,-4.4085,0,-4.3382,-4.346,-4.3519,-4.3604,-4.3655,-4.3737,-4.3769,-4.3818,-4.3824,-4.3852,-4.3954,-4.4004,-4.4083,-4.4112,-4.4118,-4.4233,-4.4218,-4.4199,-4.4155,-4.4248,-4.4289,-4.4306,-4.4091,-4.4089,-4.4088,-4.4088,0,0,-4.351,-4.3606,-4.3627,-4.3666,-4.374,-4.38,-4.3882,-4.396,-4.4002,-4.4061,-4.413,-4.4233,-4.4216,-4.426,-4.4271,-4.4326,-4.4424,-4.4299,-4.4301,-4.432,-4.4554,-4.4568,-4.4587,-4.442,-4.4423,-4.4425,-4.4549,0,-4.3626,-4.3773,-4.3794,-4.3923,-4.3995,-4.3993,-4.4065,-4.4118,-4.4147,-4.4211,-4.4241,-4.4314,-4.4286,-4.4313,-4.4367,-4.4401,-4.4471,-4.4392,-4.4483,-4.4486,-4.4467,-4.4609,-4.4624,-4.4737,-4.4565,-4.4568,-4.457,0,-4.3781,-4.3847,-4.3983,-4.4049,-4.408,-4.4144,-4.4217,-4.4279,-4.434,-4.4356,-4.4407,-4.4412,-4.4496,-4.4449,-4.4566,-4.4512,-4.455,-4.4573,-4.4578,-4.4586,-4.4533,-4.462,-4.4774,-4.4791,-4.4595,-4.4593,-4.4591,0,-4.386,-4.3982,-4.408,-4.4113,-4.4192,-4.4237,-4.4272,-4.433,-4.4376,-4.444,-4.4469,-4.4542,-4.4581,-4.4637,-4.4661,-4.4625,-4.4777,-4.4732,-4.4792,-4.4791,-4.4823,-4.4821,-4.4984,-4.4849,-4.4849,-4.4849,-4.4848,0,-4.3988,-4.4071,-4.4116,-4.4176,-4.427,-4.4294,-4.4385,-4.4419,-4.447,-4.4536,-4.4539,-4.4601,-4.463,-4.4696,-4.4715,-4.4809,-4.4827,-4.4842,-4.4846,-4.4841,-4.4839,-4.4866,-4.4859,-4.4853,-4.4852,-4.4851,-4.485,0,-4.4091,-4.4125,-4.4231,-4.4298,-4.4317,-4.4383,-4.444,-4.4498,-4.4527,-4.461,-4.4631,-4.4675,-4.4753,-4.4783,-4.4878,-4.4891,-4.4999,-4.4997,-4.4979,-4.498,-4.5038,-4.5032,-4.5224,-4.5251,-4.5099,-4.51,-4.5101,0,-4.4169,-4.4234,-4.4309,-4.4354,-4.4391,-4.4463,-4.451,-4.4536,-4.4585,-4.466,-4.4709,-4.4787,-4.4851,-4.4975,-4.5015,-4.5088,-4.5087,-4.515,-4.5098,-4.5091,-4.5087,-4.5083,-4.5089,-4.5159,-4.516,-4.5161,-4.5162,0,-4.4305,-4.4319,-4.4388,-4.4463,-4.4519,-4.4579,-4.4637,-4.4674,-4.4709,-4.4763,-4.4844,-4.4893,-4.4991,-4.5069,-4.5144,-4.5179,-4.5176,-4.5179,-4.5196,-4.5192,-4.5179,-4.5186,-4.5004,-4.5174,-4.5173,-4.5172,-4.5171,-4.5171,-4.4398,-4.4456,-4.4518,-4.4594,-4.4641,-4.4696,-4.4754,-4.479,-4.4858,-4.4941,-4.4952,-4.5038,-4.5098,-4.5199,-4.5237,-4.5304,-4.5288,-4.5313,-4.532,-4.5326,-4.533,-4.5169,-4.5318,-4.5318,-4.5318,-4.5317,-4.5317,0,-4.4534,-4.4574,-4.4644,-4.4726,-4.4787,-4.4781,-4.4846,-4.4896,-4.4972,-4.5029,-4.5092,-4.5185,-4.526,-4.5307,-4.5382,-4.5427,-4.5428,-4.5446,-4.5443,-4.5451,-4.534,-4.5317,-4.5444,-4.5444,-4.5444,-4.5444,-4.5444,-4.5444,-4.4611,-4.4708,-4.473,-4.4851,-4.489,-4.4976,-4.5013,-4.5063,-4.5109,-4.5213,-4.5276,-4.5306,-4.5359,-4.5439,-4.5507,-4.5519,-4.5547,-4.5566,-4.5576,-4.5472,-4.5459,-4.5446,-4.5424,-4.5572,-4.5572,-4.5681,-4.5682,-4.5683]}]]